Regional Weather Roundup
Issued by NWS

Home | Current Version | Previous Version | Graphics & Text | Print | Product List | Glossary On
Versions: 1 2 3 4 5 6 7 8 9 10 11 12 13 14 15 16 17 18 19 20 21 22 23 24 25 26 27 28 29 30 31 32 33 34 35 36 37 38 39 40 41 42 43 44 45 46 47 48 49 50
000
ASUS43 KLOT 042300
RWRIL

ILLINOIS REGIONAL WEATHER ROUNDUP
NATIONAL WEATHER SERVICE CHICAGO/ROMEOVILLE IL
600 PM CDT SAT JUL 04 2015

NOTE: "FAIR" INDICATES FEW OR NO CLOUDS BELOW 12,000 FEET WITH NO
SIGNIFICANT WEATHER AND/OR OBSTRUCTIONS TO VISIBILITY.

* THESE STATIONS ARE NOT UNDER NWS QUALITY CONTROL. THEY ALSO MAY NOT
  REPORT WEATHER SUCH AS PRECIPITATION OR FOG.

ILZ001-002-007-009-015-016-024-050000-
NORTHWEST ILLINOIS

CITY           SKY/WX    TMP DP  RH WIND       PRES   REMARKS
MOLINE         SUNNY     79  60  52 S3        29.97F HX  80
STERLING*      PTSUNNY   81  61  50 W5        29.99F HX  81
$$

ILZ003-004-008-010-011-017-018-050000-
NORTH CENTRAL ILLINOIS

CITY           SKY/WX    TMP DP  RH WIND       PRES   REMARKS
ROCKFORD       MOSUNNY   80  59  48 W8        30.00F HX  81
$$

ILZ005-006-012>014-019>023-050000-
NORTHEAST ILLINOIS

CITY           SKY/WX    TMP DP  RH WIND       PRES   REMARKS
CHICAGO-OHARE  MOSUNNY   80  55  42 W8        29.98F HX  80
CHICAGO-MIDWAY MOSUNNY   81  58  45 W8        29.98F HX  81
AURORA         SUNNY     80  58  46 W3        29.99F HX  80
WAUKEGAN       SUNNY     73  56  54 SE8       29.99S
DUPAGE AIRPORT SUNNY     79  56  45 SW5       29.98F HX  80
WHEELING       SUNNY     79  56  45 E7        29.99F HX  80
NORTHERLY ISL    N/A     71  59  65 CALM        N/A
$$

LMZ740>746-050000-
SOUTHERN LAKE MICHIGAN

STATION/POSITION SKY/WX   TEMP    WIND        PRES    VSBY  WAVE
                          AIR SEA DIR/SP/G                  HT/PER
                          (F)     (DEG/KT/KT) (MB)    (MI)  (FT/S)
HARRISON CRIB              67      90/ 10/ 10   N/A
BURNHAM HARBOR             70      90/  2/  3   N/A
CALUMET HARBOR             70      90/  7/  9   N/A
BURNS HARBOR               71      80/  8/ 10 1016.3
MICHIGAN CITY              67      30/  8/  9   N/A
MICHIGAN CITY 6N           67 66   90/  6/  6   N/A           1
ST. JOSEPH                 69 66                N/A           0
$$

ILZ025>027-034>036-040-047-049-050-058-095>099-050000-
WEST-CENTRAL ILLINOIS

CITY           SKY/WX    TMP DP  RH WIND       PRES   REMARKS
QUINCY         SUNNY     80  58  46 CALM      29.98F HX  80
$$

ILZ028>032-037-038-041>044-048-051>054-059>061-050000-
CENTRAL ILLINOIS

CITY           SKY/WX    TMP DP  RH WIND       PRES   REMARKS
DECATUR        MOSUNNY   80  62  54 NE6       29.99F HX  81
PEORIA         SUNNY     81  59  47 CALM      29.99F HX  81
SPRINGFIELD    SUNNY     83  64  52 CALM      29.98F HX  84
TAYLORVILLE    NOT AVBL
$$

ILZ033-039-045-046-055>057-062-063-050000-
EAST-CENTRAL ILLINOIS

CITY           SKY/WX    TMP DP  RH WIND       PRES   REMARKS
CHAMPAIGN      SUNNY     78  61  55 CALM      30.00S HX  80
RANTOUL*       SUNNY     80  62  53 NW5       29.99F HX  81
MATTOON        SUNNY     79  60  52 NE5       29.98F HX  80
$$

ILZ079-100>102-050000-
SOUTHWEST ILLINOIS

CITY           SKY/WX    TMP DP  RH WIND       PRES   REMARKS
BELLEVILLE     SUNNY     82  65  57 NE3       29.96F HX  83
CAHOKIA*       MOSUNNY   82  64  54 E5        29.96F HX  83
$$

ILZ064>066-069>071-074>076-080>082-084>086-088>090-092>094-050000-
SOUTH-CENTRAL ILLINOIS

CITY           SKY/WX    TMP DP  RH WIND       PRES   REMARKS
CARBONDALE     CLOUDY    80  64  58 E5        29.96S HX  82
MARION         PTSUNNY   81  66  61 NE6       29.97F HX  83
MT. VERNON     PTSUNNY   79  63  57 NE3       29.98S HX  80
$$

ILZ067-068-072-073-078-083-087-091-050000-
SOUTHEAST ILLINOIS

CITY           SKY/WX    TMP DP  RH WIND       PRES   REMARKS
LAWRENCEVILLE  PTSUNNY   80  66  62 N3        29.97F HX  82
$$

ABBREVIATIONS USED IN REMARKS
   TC - TEMPERATURE IN CELSIUS
  WCI - WIND CHILL INDEX
   HX - HEAT INDEX
  VSB - VISIBILITY
$$




USA.gov is the U.S. government's official web portal to all federal, state and local government web resources and services.